Location: Krakow
(50.0830°N, 19.9170°E)
Time: 04:53:26
(UTC+01:00)

SR - Pass Details

Date: 11 February 2023
Orbit: 582 x 867 km, 66.7° (Epoch: 20 March)

Event Time Altitude Azimuth Distance (km) Brightness Sun altitude
Rises 20:55:03 0° 320° (NW) 2,852 ? -38.7°
Enters shadow 20:57:16 10° 316° (NW) 1,959 ? -39.0°
Reaches altitude 10° 20:57:21 10° 316° (NW) 1,927 - -39.1°
Maximum altitude 21:01:31 54° 239° (WSW) 712 - -39.6°
Drops below altitude 10° 21:05:40 10° 162° (SSE) 1,904 - -40.2°
Sets 21:07:56 0° 158° (SSE) 2,815 - -40.5°
